This demonstration page uses our WeatherBlox Daily Observations layout. Learn more.

Left ArrowRight Arrow

Hourly Observations for June 30, 2021

Temp ( °F °C ) Dew Point ( °F °C ) Humidity (%) Winds ( mph kmh ) Pressure ( in mb ) Visibility ( mi km ) Precip ( " mm )
12:59 am 00:59 Clear 80 26.7 73 22.8 79 79 SSW 8 13 30.24 1024 10 16 0.00 0.00
1:59 am 01:59 Clear 80 26.7 72 22.2 76 76 SSW 9 15 30.22 1023 10 16 0.00 0.00
2:59 am 02:59 Mostly Clear 79 26.1 72 22.2 79 79 SW 10 17 30.20 1023 10 16 0.00 0.00
3:59 am 03:59 Mostly Clear 78 25.6 72 22.2 82 82 SSW 7 11 30.19 1023 10 16 0.00 0.00
4:59 am 04:59 Mostly Clear 77 25 72 22.2 85 85 SW 13 20 30.19 1022 10 16 0.00 0.00
5:59 am 05:59 Mostly Sunny 77 25 72 22.2 85 85 SW 7 11 30.19 1022 10 16 0.00 0.00
6:59 am 06:59 Sunny 78 25.6 72 22.2 82 82 SW 6 9 30.19 1022 10 16 0.00 0.00
7:59 am 07:59 Mostly Sunny 80 26.7 73 22.8 79 79 SW 9 15 30.18 1022 10 16 0.00 0.00
8:59 am 08:59 Mostly Sunny 83 28.3 73 22.8 72 72 SW 8 13 30.17 1022 10 16 0.00 0.00
9:59 am 09:59 Partly Cloudy 84 28.9 72 22.2 67 67 WSW 12 19 30.15 1021 10 16 0.00 0.00
10:59 am 10:59 Partly Cloudy 86 30 73 22.8 65 65 SSW 9 15 30.15 1021 10 16 0.00 0.00
11:59 am 11:59 Partly Cloudy 88 31.1 70 21.1 55 55 W 13 20 30.14 1021 10 16 0.00 0.00
12:59 pm 12:59 Mostly Sunny 90 32.2 71 21.7 54 54 SSW 10 17 30.12 1020 10 16 0.00 0.00
1:59 pm 13:59 Sunny 88 31.1 70 21.1 55 55 SW 10 17 30.10 1019 10 16 0.00 0.00
2:59 pm 14:59 Mostly Cloudy 87 30.6 71 21.7 59 59 SSW 5 7 30.07 1018 10 16 0.00 0.00
3:59 pm 15:59 Mostly Cloudy 91 32.8 71 21.7 52 52 SW 13 20 30.06 1018 10 16 0.00 0.00
4:59 pm 16:59 Partly Cloudy 91 32.8 71 21.7 52 52 SW 10 17 30.04 1017 10 16 0.00 0.00
5:59 pm 17:59 Mostly Sunny 90 32.2 70 21.1 52 52 SW 12 19 30.02 1017 10 16 0.00 0.00
6:59 pm 18:59 Mostly Sunny 89 31.7 71 21.7 55 55 SSW 13 20 30.02 1017 10 16 0.00 0.00
7:59 pm 19:59 Mostly Sunny 87 30.6 70 21.1 57 57 SSW 12 19 30.02 1017 10 16 0.00 0.00
8:59 pm 20:59 Mostly Clear 86 30 70 21.1 59 59 SSW 8 13 30.03 1017 10 16 0.00 0.00
9:59 pm 21:59 Mostly Clear 85 29.4 70 21.1 61 61 SSW 9 15 30.04 1017 10 16 0.00 0.00
10:59 pm 22:59 Mostly Clear 84 28.9 70 21.1 63 63 S 9 15 30.04 1017 10 16 0.00 0.00
11:59 pm 23:59 Clear 81 27.2 72 22.2 74 74 SSW 13 20 30.03 1017 10 16 0.00 0.00

Powered by AerisWeather